owner,sensor,date,latitude,longitude,vertical_datum,wind_speed,wind_to_direction,wind_speed_of_gust,qcFlag 
TCOON,ioos:station:TCOON:524:1,2012-06-01T00:00:00Z,29.8672,-93.9310,0.0,3.1,220.0,,'1111122,1111122,1111122' 
TCOON,ioos:station:TCOON:524:1,2012-06-01T01:00:00Z,29.8672,-93.9310,0.0,2.1,250.0,,'1111122,1111122,1111122' 
TCOON,ioos:station:TCOON:524:1,2012-06-01T02:00:00Z,29.8672,-93.9310,0.0,2.6,240.0,,'1111122,1111122,1111122' 
TCOON,ioos:station:TCOON:524:1,2012-06-01T03:00:00Z,29.8672,-93.9310,0.0,2.6,180.0,,'1111122,1111122,1111122' 
TCOON,ioos:station:TCOON:524:1,2012-06-01T04:00:00Z,29.8672,-93.9310,0.0,2.1,270.0,,'1111122,1111122,1111122' 
TCOON,ioos:station:TCOON:524:1,2012-06-01T05:00:00Z,29.8672,-93.9310,0.0,2.1,250.0,,'1111122,1111122,1111122' 
TCOON,ioos:station:TCOON:524:1,2012-06-01T06:00:00Z,29.8672,-93.9310,0.0,0.4,69.0,0.6,'11111222,11111222,11111222' 
TCOON,ioos:station:TCOON:524:1,2012-06-01T07:00:00Z,29.8672,-93.9310,0.0,1.5,310.0,,'1111122,1111122,1111122' 
TCOON,ioos:station:TCOON:524:1,2012-06-01T08:00:00Z,29.8672,-93.9310,0.0,1.5,330.0,,'1111122,1111122,1111122' 
TCOON,ioos:station:TCOON:524:1,2012-06-01T09:00:00Z,29.8672,-93.9310,0.0,1.0,300.0,,'1111122,1111122,1111122' 
TCOON,ioos:station:TCOON:524:1,2012-06-01T10:00:00Z,29.8672,-93.9310,0.0,2.1,330.0,,'1111122,1111122,1111122' 
TCOON,ioos:station:TCOON:524:1,2012-06-01T11:00:00Z,29.8672,-93.9310,0.0,2.6,340.0,,'1111122,1111122,1111122' 
TCOON,ioos:station:TCOON:524:1,2012-06-01T12:00:00Z,29.8672,-93.9310,0.0,6.2,360.0,,'1111122,1111122,1111122' 
TCOON,ioos:station:TCOON:524:1,2012-06-01T13:00:00Z,29.8672,-93.9310,0.0,5.1,10.0,,'1111122,1111122,1111122' 
TCOON,ioos:station:TCOON:524:1,2012-06-01T14:00:00Z,29.8672,-93.9310,0.0,3.1,30.0,,'1111122,1111122,1111122' 
TCOON,ioos:station:TCOON:524:1,2012-06-01T15:00:00Z,29.8672,-93.9310,0.0,2.1,60.0,,'1111122,1111122,1111122' 
TCOON,ioos:station:TCOON:524:1,2012-06-01T16:00:00Z,29.8672,-93.9310,0.0,2.6,80.0,,'1111122,1111122,1111122' 
TCOON,ioos:station:TCOON:524:1,2012-06-01T17:00:00Z,29.8672,-93.9310,0.0,3.1,140.0,,'1111122,1111122,1111122' 
TCOON,ioos:station:TCOON:524:1,2012-06-01T18:00:00Z,29.8672,-93.9310,0.0,2.6,70.0,,'1111122,1111122,1111122' 
TCOON,ioos:station:TCOON:524:1,2012-06-01T19:00:00Z,29.8672,-93.9310,0.0,2.6,110.0,,'1111122,1111122,1111122' 
TCOON,ioos:station:TCOON:524:1,2012-06-01T20:00:00Z,29.8672,-93.9310,0.0,3.1,110.0,,'1111122,1111122,1111122' 
TCOON,ioos:station:TCOON:524:1,2012-06-01T21:00:00Z,29.8672,-93.9310,0.0,3.1,110.0,,'1111122,1111122,1111122' 
TCOON,ioos:station:TCOON:524:1,2012-06-01T22:00:00Z,29.8672,-93.9310,0.0,2.6,110.0,,'1111122,1111122,1111122' 
TCOON,ioos:station:TCOON:524:1,2012-06-01T23:00:00Z,29.8672,-93.9310,0.0,2.1,110.0,,'1111122,1111122,1111122' 
TCOON,ioos:station:TCOON:524:1,2012-06-02T00:00:00Z,29.8672,-93.9310,0.0,1.0,30.0,,'1111122,1111122,1111122' 
TCOON,ioos:station:TCOON:524:1,2012-06-02T01:00:00Z,29.8672,-93.9310,0.0,1.0,50.0,,'1111122,1111122,1111122' 
TCOON,ioos:station:TCOON:524:1,2012-06-02T02:00:00Z,29.8672,-93.9310,0.0,1.0,50.0,,'1111122,1111122,1111122' 
TCOON,ioos:station:TCOON:524:1,2012-06-02T03:00:00Z,29.8672,-93.9310,0.0,0.4,51.0,0.8,'11111222,11111222,11111222' 
TCOON,ioos:station:TCOON:524:1,2012-06-02T04:00:00Z,29.8672,-93.9310,0.0,0.4,59.0,0.8,'11111222,11111222,11111222' 
TCOON,ioos:station:TCOON:524:1,2012-06-02T05:00:00Z,29.8672,-93.9310,0.0,1.0,100.0,,'1111122,1111122,1111122' 
TCOON,ioos:station:TCOON:524:1,2012-06-02T06:00:00Z,29.8672,-93.9310,0.0,2.1,90.0,,'1111122,1111122,1111122' 
TCOON,ioos:station:TCOON:524:1,2012-06-02T07:00:00Z,29.8672,-93.9310,0.0,2.6,120.0,,'1111122,1111122,1111122' 
TCOON,ioos:station:TCOON:524:1,2012-06-02T08:00:00Z,29.8672,-93.9310,0.0,2.1,220.0,,'1111122,1111122,1111122' 
TCOON,ioos:station:TCOON:524:1,2012-06-02T09:00:00Z,29.8672,-93.9310,0.0,0.5,110.0,,'1111122,1111122,1111122' 
TCOON,ioos:station:TCOON:524:1,2012-06-02T10:00:00Z,29.8672,-93.9310,0.0,1.5,180.0,,'1111122,1111122,1111122' 
TCOON,ioos:station:TCOON:524:1,2012-06-02T11:00:00Z,29.8672,-93.9310,0.0,2.1,170.0,,'1111122,1111122,1111122' 
TCOON,ioos:station:TCOON:524:1,2012-06-02T12:00:00Z,29.8672,-93.9310,0.0,0.8,121.0,1.1,'11111222,11111222,11111222' 
TCOON,ioos:station:TCOON:524:1,2012-06-02T13:00:00Z,29.8672,-93.9310,0.0,1.8,127.0,2.6,'11111222,11111222,11111222' 
TCOON,ioos:station:TCOON:524:1,2012-06-02T14:00:00Z,29.8672,-93.9310,0.0,2.5,170.0,3.9,'11111222,11111222,11111222' 
TCOON,ioos:station:TCOON:524:1,2012-06-02T15:00:00Z,29.8672,-93.9310,0.0,3.3,153.0,4.9,'11111222,11111222,11111222' 
TCOON,ioos:station:TCOON:524:1,2012-06-02T16:00:00Z,29.8672,-93.9310,0.0,3.7,172.0,4.9,'11111222,11111222,11111222' 
TCOON,ioos:station:TCOON:524:1,2012-06-02T17:00:00Z,29.8672,-93.9310,0.0,3.1,172.0,5.0,'11111222,11111222,11111222' 
TCOON,ioos:station:TCOON:524:1,2012-06-02T18:00:00Z,29.8672,-93.9310,0.0,3.5,141.0,5.1,'11111222,11111222,11111222' 
TCOON,ioos:station:TCOON:524:1,2012-06-02T20:00:00Z,29.8672,-93.9310,0.0,3.8,171.0,5.9,'11111222,11111222,11111222' 
TCOON,ioos:station:TCOON:524:1,2012-06-02T21:00:00Z,29.8672,-93.9310,0.0,2.9,174.0,6.1,'11111222,11111222,11111222' 
TCOON,ioos:station:TCOON:524:1,2012-06-02T22:00:00Z,29.8672,-93.9310,0.0,3.7,197.0,6.7,'11111222,11111222,11111222' 
TCOON,ioos:station:TCOON:524:1,2012-06-02T23:00:00Z,29.8672,-93.9310,0.0,4.2,190.0,5.3,'11111222,11111222,11111222' 
TCOON,ioos:station:TCOON:524:1,2012-06-03T00:00:00Z,29.8672,-93.9310,0.0,3.9,183.0,5.7,'11111222,11111222,11111222' 
TCOON,ioos:station:TCOON:524:1,2012-06-03T01:00:00Z,29.8672,-93.9310,0.0,2.4,173.0,4.5,'11111222,11111222,11111222' 
TCOON,ioos:station:TCOON:524:1,2012-06-03T02:00:00Z,29.8672,-93.9310,0.0,2.4,184.0,4.2,'11111222,11111222,11111222' 
TCOON,ioos:station:TCOON:524:1,2012-06-03T03:00:00Z,29.8672,-93.9310,0.0,2.7,184.0,3.5,'11111222,11111222,11111222' 
TCOON,ioos:station:TCOON:524:1,2012-06-03T04:00:00Z,29.8672,-93.9310,0.0,2.6,186.0,3.7,'11111222,11111222,11111222' 
TCOON,ioos:station:TCOON:524:1,2012-06-03T05:00:00Z,29.8672,-93.9310,0.0,2.3,183.0,3.1,'11111222,11111222,11111222' 
TCOON,ioos:station:TCOON:524:1,2012-06-03T06:00:00Z,29.8672,-93.9310,0.0,2.1,194.0,3.2,'11111222,11111222,11111222' 
TCOON,ioos:station:TCOON:524:1,2012-06-03T07:00:00Z,29.8672,-93.9310,0.0,1.9,193.0,2.9,'11111222,11111222,11111222' 
TCOON,ioos:station:TCOON:524:1,2012-06-03T08:00:00Z,29.8672,-93.9310,0.0,1.4,186.0,2.1,'11111222,11111222,11111222' 
TCOON,ioos:station:TCOON:524:1,2012-06-03T09:00:00Z,29.8672,-93.9310,0.0,1.9,188.0,2.5,'11111222,11111222,11111222' 
TCOON,ioos:station:TCOON:524:1,2012-06-03T10:00:00Z,29.8672,-93.9310,0.0,2.2,196.0,2.8,'11111222,11111222,11111222' 
TCOON,ioos:station:TCOON:524:1,2012-06-03T11:00:00Z,29.8672,-93.9310,0.0,1.5,185.0,2.2,'11111222,11111222,11111222' 
TCOON,ioos:station:TCOON:524:1,2012-06-03T12:00:00Z,29.8672,-93.9310,0.0,1.6,181.0,2.6,'11111222,11111222,11111222' 
TCOON,ioos:station:TCOON:524:1,2012-06-03T13:00:00Z,29.8672,-93.9310,0.0,3.3,194.0,4.8,'11111222,11111222,11111222' 
TCOON,ioos:station:TCOON:524:1,2012-06-03T14:00:00Z,29.8672,-93.9310,0.0,5.4,190.0,7.2,'11111222,11111222,11111222' 
TCOON,ioos:station:TCOON:524:1,2012-06-03T15:00:00Z,29.8672,-93.9310,0.0,5.6,197.0,7.5,'11111222,11111222,11111222' 
TCOON,ioos:station:TCOON:524:1,2012-06-03T16:00:00Z,29.8672,-93.9310,0.0,4.4,186.0,9.3,'11111222,11111222,11111222' 
TCOON,ioos:station:TCOON:524:1,2012-06-03T17:00:00Z,29.8672,-93.9310,0.0,4.5,188.0,7.0,'11111222,11111222,11111222' 
TCOON,ioos:station:TCOON:524:1,2012-06-03T18:00:00Z,29.8672,-93.9310,0.0,4.4,193.0,8.0,'11111222,11111222,11111222' 
TCOON,ioos:station:TCOON:524:1,2012-06-03T19:00:00Z,29.8672,-93.9310,0.0,4.2,191.0,7.6,'11111222,11111222,11111222' 
TCOON,ioos:station:TCOON:524:1,2012-06-03T20:00:00Z,29.8672,-93.9310,0.0,4.6,185.0,6.9,'11111222,11111222,11111222' 
TCOON,ioos:station:TCOON:524:1,2012-06-03T21:00:00Z,29.8672,-93.9310,0.0,4.7,189.0,6.9,'11111222,11111222,11111222' 
TCOON,ioos:station:TCOON:524:1,2012-06-03T22:00:00Z,29.8672,-93.9310,0.0,3.8,194.0,5.7,'11111222,11111222,11111222' 
TCOON,ioos:station:TCOON:524:1,2012-06-03T23:00:00Z,29.8672,-93.9310,0.0,3.2,191.0,5.3,'11111222,11111222,11111222' 
TCOON,ioos:station:TCOON:524:1,2012-06-04T00:00:00Z,29.8672,-93.9310,0.0,3.8,188.0,5.3,'11111222,11111222,11111222' 
TCOON,ioos:station:TCOON:524:1,2012-06-04T01:00:00Z,29.8672,-93.9310,0.0,2.1,185.0,3.6,'11111222,11111222,11111222' 
TCOON,ioos:station:TCOON:524:1,2012-06-04T02:00:00Z,29.8672,-93.9310,0.0,2.4,184.0,3.5,'11111222,11111222,11111222' 
TCOON,ioos:station:TCOON:524:1,2012-06-04T03:00:00Z,29.8672,-93.9310,0.0,2.0,185.0,2.9,'11111222,11111222,11111222' 
TCOON,ioos:station:TCOON:524:1,2012-06-04T04:00:00Z,29.8672,-93.9310,0.0,2.6,168.0,3.9,'11111222,11111222,11111222' 
TCOON,ioos:station:TCOON:524:1,2012-06-04T05:00:00Z,29.8672,-93.9310,0.0,2.2,190.0,3.1,'11111222,11111222,11111222' 
TCOON,ioos:station:TCOON:524:1,2012-06-04T06:00:00Z,29.8672,-93.9310,0.0,3.7,189.0,5.2,'11111222,11111222,11111222' 
TCOON,ioos:station:TCOON:524:1,2012-06-04T07:00:00Z,29.8672,-93.9310,0.0,2.8,193.0,4.0,'11111222,11111222,11111222' 
TCOON,ioos:station:TCOON:524:1,2012-06-04T08:00:00Z,29.8672,-93.9310,0.0,2.2,188.0,3.4,'11111222,11111222,11111222' 
TCOON,ioos:station:TCOON:524:1,2012-06-04T09:00:00Z,29.8672,-93.9310,0.0,1.8,183.0,2.5,'11111222,11111222,11111222' 
TCOON,ioos:station:TCOON:524:1,2012-06-04T10:00:00Z,29.8672,-93.9310,0.0,2.7,197.0,3.8,'11111222,11111222,11111222' 
TCOON,ioos:station:TCOON:524:1,2012-06-04T11:00:00Z,29.8672,-93.9310,0.0,1.9,193.0,2.7,'11111222,11111222,11111222' 
TCOON,ioos:station:TCOON:524:1,2012-06-04T12:00:00Z,29.8672,-93.9310,0.0,2.5,205.0,3.2,'11111222,11111222,11111222' 
TCOON,ioos:station:TCOON:524:1,2012-06-04T13:00:00Z,29.8672,-93.9310,0.0,2.2,202.0,3.2,'11111222,11111222,11111222' 
TCOON,ioos:station:TCOON:524:1,2012-06-04T14:00:00Z,29.8672,-93.9310,0.0,2.9,206.0,4.5,'11111222,11111222,11111222' 
TCOON,ioos:station:TCOON:524:1,2012-06-04T15:00:00Z,29.8672,-93.9310,0.0,2.2,200.0,4.6,'11111222,11111222,11111222' 
TCOON,ioos:station:TCOON:524:1,2012-06-04T16:00:00Z,29.8672,-93.9310,0.0,5.2,222.0,7.2,'11111222,11111222,11111222' 
TCOON,ioos:station:TCOON:524:1,2012-06-04T17:00:00Z,29.8672,-93.9310,0.0,2.9,214.0,5.3,'11111222,11111222,11111222' 
TCOON,ioos:station:TCOON:524:1,2012-06-04T18:00:00Z,29.8672,-93.9310,0.0,2.2,203.0,4.7,'11111222,11111222,11111222' 
TCOON,ioos:station:TCOON:524:1,2012-06-04T19:00:00Z,29.8672,-93.9310,0.0,4.8,154.0,6.7,'11111222,11111222,11111222' 
TCOON,ioos:station:TCOON:524:1,2012-06-04T20:00:00Z,29.8672,-93.9310,0.0,5.0,147.0,6.9,'11111222,11111222,11111222' 
TCOON,ioos:station:TCOON:524:1,2012-06-04T21:00:00Z,29.8672,-93.9310,0.0,4.4,163.0,5.9,'11111222,11111222,11111222' 
TCOON,ioos:station:TCOON:524:1,2012-06-04T22:00:00Z,29.8672,-93.9310,0.0,5.4,192.0,6.8,'11111222,11111222,11111222' 
TCOON,ioos:station:TCOON:524:1,2012-06-04T23:00:00Z,29.8672,-93.9310,0.0,5.1,194.0,7.2,'11111222,11111222,11111222' 
TCOON,ioos:station:TCOON:524:1,2012-06-05T00:00:00Z,29.8672,-93.9310,0.0,2.7,173.0,4.7,'11111222,11111222,11111222' 
TCOON,ioos:station:TCOON:524:1,2012-06-05T01:00:00Z,29.8672,-93.9310,0.0,2.5,185.0,4.0,'11111222,11111222,11111222' 
TCOON,ioos:station:TCOON:524:1,2012-06-05T02:00:00Z,29.8672,-93.9310,0.0,2.3,186.0,3.2,'11111222,11111222,11111222' 
TCOON,ioos:station:TCOON:524:1,2012-06-05T03:00:00Z,29.8672,-93.9310,0.0,1.5,188.0,2.4,'11111222,11111222,11111222' 
TCOON,ioos:station:TCOON:524:1,2012-06-05T04:00:00Z,29.8672,-93.9310,0.0,2.0,195.0,3.1,'11111222,11111222,11111222' 
TCOON,ioos:station:TCOON:524:1,2012-06-05T05:00:00Z,29.8672,-93.9310,0.0,2.0,183.0,3.3,'11111222,11111222,11111222' 
TCOON,ioos:station:TCOON:524:1,2012-06-05T06:00:00Z,29.8672,-93.9310,0.0,1.9,190.0,3.4,'11111222,11111222,11111222' 
TCOON,ioos:station:TCOON:524:1,2012-06-05T07:00:00Z,29.8672,-93.9310,0.0,2.8,227.0,3.4,'11111222,11111222,11111222' 
TCOON,ioos:station:TCOON:524:1,2012-06-05T08:00:00Z,29.8672,-93.9310,0.0,3.0,233.0,4.1,'11111222,11111222,11111222' 
TCOON,ioos:station:TCOON:524:1,2012-06-05T09:00:00Z,29.8672,-93.9310,0.0,2.6,246.0,3.1,'11111222,11111222,11111222' 
TCOON,ioos:station:TCOON:524:1,2012-06-05T10:00:00Z,29.8672,-93.9310,0.0,2.2,264.0,2.9,'11111222,11111222,11111222' 
TCOON,ioos:station:TCOON:524:1,2012-06-05T11:00:00Z,29.8672,-93.9310,0.0,1.5,276.0,2.9,'11111222,11111222,11111222' 
TCOON,ioos:station:TCOON:524:1,2012-06-05T12:00:00Z,29.8672,-93.9310,0.0,2.2,323.0,2.7,'11111222,11111222,11111222' 
TCOON,ioos:station:TCOON:524:1,2012-06-05T13:00:00Z,29.8672,-93.9310,0.0,3.3,292.0,4.1,'11111222,11111222,11111222' 
TCOON,ioos:station:TCOON:524:1,2012-06-05T14:00:00Z,29.8672,-93.9310,0.0,3.5,328.0,4.7,'11111222,11111222,11111222' 
TCOON,ioos:station:TCOON:524:1,2012-06-05T15:00:00Z,29.8672,-93.9310,0.0,2.9,317.0,5.5,'11111222,11111222,11111222' 
TCOON,ioos:station:TCOON:524:1,2012-06-05T16:00:00Z,29.8672,-93.9310,0.0,3.4,343.0,4.3,'11111222,11111222,11111222' 
TCOON,ioos:station:TCOON:524:1,2012-06-05T17:00:00Z,29.8672,-93.9310,0.0,2.2,307.0,4.2,'11111222,11111222,11111222' 
TCOON,ioos:station:TCOON:524:1,2012-06-05T18:00:00Z,29.8672,-93.9310,0.0,3.5,106.0,4.6,'11111222,11111222,11111222' 
TCOON,ioos:station:TCOON:524:1,2012-06-05T19:00:00Z,29.8672,-93.9310,0.0,2.7,135.0,3.7,'11111222,11111222,11111222' 
TCOON,ioos:station:TCOON:524:1,2012-06-05T20:00:00Z,29.8672,-93.9310,0.0,2.3,114.0,3.8,'11111222,11111222,11111222' 
TCOON,ioos:station:TCOON:524:1,2012-06-05T21:00:00Z,29.8672,-93.9310,0.0,2.9,151.0,5.1,'11111222,11111222,11111222' 
TCOON,ioos:station:TCOON:524:1,2012-06-05T22:00:00Z,29.8672,-93.9310,0.0,3.7,162.0,4.9,'11111222,11111222,11111222' 
TCOON,ioos:station:TCOON:524:1,2012-06-05T23:00:00Z,29.8672,-93.9310,0.0,2.5,174.0,4.2,'11111222,11111222,11111222' 
TCOON,ioos:station:TCOON:524:1,2012-06-06T00:00:00Z,29.8672,-93.9310,0.0,4.3,202.0,6.6,'11111222,11111222,11111222' 
TCOON,ioos:station:TCOON:524:1,2012-06-06T01:00:00Z,29.8672,-93.9310,0.0,3.7,208.0,5.2,'11111222,11111222,11111222' 
TCOON,ioos:station:TCOON:524:1,2012-06-06T02:00:00Z,29.8672,-93.9310,0.0,3.8,211.0,5.6,'11111222,11111222,11111222' 
TCOON,ioos:station:TCOON:524:1,2012-06-06T03:00:00Z,29.8672,-93.9310,0.0,3.9,231.0,4.9,'11111222,11111222,11111222' 
TCOON,ioos:station:TCOON:524:1,2012-06-06T04:00:00Z,29.8672,-93.9310,0.0,3.1,229.0,4.8,'11111222,11111222,11111222' 
TCOON,ioos:station:TCOON:524:1,2012-06-06T05:00:00Z,29.8672,-93.9310,0.0,3.9,238.0,5.0,'11111222,11111222,11111222' 
TCOON,ioos:station:TCOON:524:1,2012-06-06T06:00:00Z,29.8672,-93.9310,0.0,3.2,232.0,4.6,'11111222,11111222,11111222' 
TCOON,ioos:station:TCOON:524:1,2012-06-06T07:00:00Z,29.8672,-93.9310,0.0,3.6,234.0,5.5,'11111222,11111222,11111222' 
TCOON,ioos:station:TCOON:524:1,2012-06-06T08:00:00Z,29.8672,-93.9310,0.0,4.2,220.0,4.7,'11111222,11111222,11111222' 
TCOON,ioos:station:TCOON:524:1,2012-06-06T09:00:00Z,29.8672,-93.9310,0.0,2.5,275.0,3.4,'11111222,11111222,11111222' 
TCOON,ioos:station:TCOON:524:1,2012-06-06T10:00:00Z,29.8672,-93.9310,0.0,2.1,281.0,2.8,'11111222,11111222,11111222' 
TCOON,ioos:station:TCOON:524:1,2012-06-06T11:00:00Z,29.8672,-93.9310,0.0,0.2,111.0,1.0,'11111222,11111222,11111222' 
TCOON,ioos:station:TCOON:524:1,2012-06-06T12:00:00Z,29.8672,-93.9310,0.0,2.0,235.0,2.5,'11111222,11111222,11111222' 
TCOON,ioos:station:TCOON:524:1,2012-06-06T13:00:00Z,29.8672,-93.9310,0.0,2.0,8.0,3.0,'11111222,11111222,11111222' 
TCOON,ioos:station:TCOON:524:1,2012-06-06T14:00:00Z,29.8672,-93.9310,0.0,1.2,360.0,3.1,'11111222,11144222,11111222' 
TCOON,ioos:station:TCOON:524:1,2012-06-06T15:00:00Z,29.8672,-93.9310,0.0,2.0,14.0,3.3,'11111222,11111222,11111222' 
TCOON,ioos:station:TCOON:524:1,2012-06-06T16:00:00Z,29.8672,-93.9310,0.0,2.9,102.0,3.7,'11111222,11111222,11111222' 
TCOON,ioos:station:TCOON:524:1,2012-06-06T17:00:00Z,29.8672,-93.9310,0.0,2.8,113.0,3.5,'11111222,11111222,11111222' 
TCOON,ioos:station:TCOON:524:1,2012-06-06T18:00:00Z,29.8672,-93.9310,0.0,2.2,114.0,3.8,'11111222,11111222,11111222' 
TCOON,ioos:station:TCOON:524:1,2012-06-06T19:00:00Z,29.8672,-93.9310,0.0,2.4,122.0,3.9,'11111222,11111222,11111222' 
TCOON,ioos:station:TCOON:524:1,2012-06-06T20:00:00Z,29.8672,-93.9310,0.0,1.7,149.0,2.7,'11111222,11111222,11111222' 
TCOON,ioos:station:TCOON:524:1,2012-06-06T21:00:00Z,29.8672,-93.9310,0.0,3.7,167.0,6.0,'11111222,11111222,11111222' 
TCOON,ioos:station:TCOON:524:1,2012-06-06T22:00:00Z,29.8672,-93.9310,0.0,3.6,149.0,5.5,'11111222,11111222,11111222' 
TCOON,ioos:station:TCOON:524:1,2012-06-06T23:00:00Z,29.8672,-93.9310,0.0,1.8,37.0,5.6,'11111222,11111222,11111222' 
TCOON,ioos:station:TCOON:524:1,2012-06-07T00:00:00Z,29.8672,-93.9310,0.0,4.4,327.0,5.5,'11111222,11111222,11111222' 
TCOON,ioos:station:TCOON:524:1,2012-06-07T01:00:00Z,29.8672,-93.9310,0.0,2.2,198.0,2.6,'11111222,11111222,11111222' 
TCOON,ioos:station:TCOON:524:1,2012-06-07T02:00:00Z,29.8672,-93.9310,0.0,1.9,153.0,3.0,'11111222,11111222,11111222' 
TCOON,ioos:station:TCOON:524:1,2012-06-07T03:00:00Z,29.8672,-93.9310,0.0,3.3,2.0,4.1,'11111222,11111222,11111222' 
TCOON,ioos:station:TCOON:524:1,2012-06-07T04:00:00Z,29.8672,-93.9310,0.0,1.2,32.0,2.7,'11111222,11111222,11111222' 
TCOON,ioos:station:TCOON:524:1,2012-06-07T05:00:00Z,29.8672,-93.9310,0.0,2.7,75.0,4.9,'11111222,11111222,11111222' 
TCOON,ioos:station:TCOON:524:1,2012-06-07T06:00:00Z,29.8672,-93.9310,0.0,1.4,62.0,2.5,'11111222,11111222,11111222' 
TCOON,ioos:station:TCOON:524:1,2012-06-07T07:00:00Z,29.8672,-93.9310,0.0,3.4,356.0,4.1,'11111222,11111222,11111222' 
TCOON,ioos:station:TCOON:524:1,2012-06-07T08:00:00Z,29.8672,-93.9310,0.0,3.8,2.0,4.5,'11111222,11111222,11111222' 
TCOON,ioos:station:TCOON:524:1,2012-06-07T09:00:00Z,29.8672,-93.9310,0.0,5.0,360.0,7.1,'11111222,11144222,11111222' 
TCOON,ioos:station:TCOON:524:1,2012-06-07T10:00:00Z,29.8672,-93.9310,0.0,1.8,44.0,4.0,'11111222,11111222,11111222' 
TCOON,ioos:station:TCOON:524:1,2012-06-07T11:00:00Z,29.8672,-93.9310,0.0,1.2,44.0,2.9,'11111222,11111222,11111222' 
TCOON,ioos:station:TCOON:524:1,2012-06-07T12:00:00Z,29.8672,-93.9310,0.0,1.1,32.0,2.5,'11111222,11111222,11111222' 
TCOON,ioos:station:TCOON:524:1,2012-06-07T13:00:00Z,29.8672,-93.9310,0.0,1.4,45.0,3.1,'11111222,11111222,11111222' 
TCOON,ioos:station:TCOON:524:1,2012-06-07T14:00:00Z,29.8672,-93.9310,0.0,2.5,61.0,4.2,'11111222,11111222,11111222' 
TCOON,ioos:station:TCOON:524:1,2012-06-07T15:00:00Z,29.8672,-93.9310,0.0,1.4,51.0,4.3,'11111222,11111222,11111222' 
TCOON,ioos:station:TCOON:524:1,2012-06-07T16:00:00Z,29.8672,-93.9310,0.0,1.2,37.0,2.5,'11111222,11111222,11111222' 
TCOON,ioos:station:TCOON:524:1,2012-06-07T17:00:00Z,29.8672,-93.9310,0.0,2.7,73.0,3.7,'11111222,11111222,11111222' 
TCOON,ioos:station:TCOON:524:1,2012-06-07T18:00:00Z,29.8672,-93.9310,0.0,2.6,100.0,,'1111122,1111122,1111122' 
TCOON,ioos:station:TCOON:524:1,2012-06-07T19:00:00Z,29.8672,-93.9310,0.0,3.1,110.0,,'1111122,1111122,1111122' 
TCOON,ioos:station:TCOON:524:1,2012-06-07T20:00:00Z,29.8672,-93.9310,0.0,3.1,100.0,,'1111122,1111122,1111122' 
TCOON,ioos:station:TCOON:524:1,2012-06-07T21:00:00Z,29.8672,-93.9310,0.0,2.1,110.0,,'1111122,1111122,1111122' 
TCOON,ioos:station:TCOON:524:1,2012-06-07T22:00:00Z,29.8672,-93.9310,0.0,2.6,160.0,,'1111122,1111122,1111122' 
TCOON,ioos:station:TCOON:524:1,2012-06-07T23:00:00Z,29.8672,-93.9310,0.0,2.1,130.0,,'1111122,1111122,1111122' 
TCOON,ioos:station:TCOON:524:1,2012-06-08T00:00:00Z,29.8672,-93.9310,0.0,3.6,220.0,,'1111122,1111122,1111122' 
TCOON,ioos:station:TCOON:524:1,2012-06-08T01:00:00Z,29.8672,-93.9310,0.0,2.1,120.0,,'1111122,1111122,1111122' 
TCOON,ioos:station:TCOON:524:1,2012-06-08T02:00:00Z,29.8672,-93.9310,0.0,5.1,310.0,,'1111122,1111122,1111122' 
TCOON,ioos:station:TCOON:524:1,2012-06-08T03:00:00Z,29.8672,-93.9310,0.0,4.1,120.0,,'1111122,1111122,1111122' 
TCOON,ioos:station:TCOON:524:1,2012-06-08T04:00:00Z,29.8672,-93.9310,0.0,4.6,80.0,,'1111122,1111122,1111122' 
TCOON,ioos:station:TCOON:524:1,2012-06-08T05:00:00Z,29.8672,-93.9310,0.0,3.6,80.0,,'1111122,1111122,1111122' 
TCOON,ioos:station:TCOON:524:1,2012-06-08T06:00:00Z,29.8672,-93.9310,0.0,1.0,40.0,,'1111122,1111122,1111122' 
TCOON,ioos:station:TCOON:524:1,2012-06-08T07:00:00Z,29.8672,-93.9310,0.0,2.1,90.0,,'1111122,1111122,1111122' 
TCOON,ioos:station:TCOON:524:1,2012-06-08T08:00:00Z,29.8672,-93.9310,0.0,1.5,20.0,,'1111122,1111122,1111122' 
TCOON,ioos:station:TCOON:524:1,2012-06-08T09:00:00Z,29.8672,-93.9310,0.0,2.6,10.0,,'1111122,1111122,1111122' 
TCOON,ioos:station:TCOON:524:1,2012-06-08T10:00:00Z,29.8672,-93.9310,0.0,0.5,30.0,,'1111122,1111122,1111122' 
TCOON,ioos:station:TCOON:524:1,2012-06-08T11:00:00Z,29.8672,-93.9310,0.0,3.1,10.0,,'1111122,1111122,1111122' 
TCOON,ioos:station:TCOON:524:1,2012-06-08T12:00:00Z,29.8672,-93.9310,0.0,2.6,30.0,,'1111122,1111122,1111122' 
TCOON,ioos:station:TCOON:524:1,2012-06-08T13:00:00Z,29.8672,-93.9310,0.0,1.0,30.0,,'1111122,1111122,1111122' 
TCOON,ioos:station:TCOON:524:1,2012-06-08T14:00:00Z,29.8672,-93.9310,0.0,1.0,40.0,,'1111122,1111122,1111122' 
TCOON,ioos:station:TCOON:524:1,2012-06-08T15:00:00Z,29.8672,-93.9310,0.0,1.0,30.0,,'1111122,1111122,1111122' 
TCOON,ioos:station:TCOON:524:1,2012-06-08T16:00:00Z,29.8672,-93.9310,0.0,2.6,70.0,,'1111122,1111122,1111122' 
TCOON,ioos:station:TCOON:524:1,2012-06-08T17:00:00Z,29.8672,-93.9310,0.0,3.1,90.0,,'1111122,1111122,1111122' 
TCOON,ioos:station:TCOON:524:1,2012-06-08T18:00:00Z,29.8672,-93.9310,0.0,3.6,77.0,5.5,'11111222,11111222,11111222' 
TCOON,ioos:station:TCOON:524:1,2012-06-08T19:00:00Z,29.8672,-93.9310,0.0,3.7,99.0,5.2,'11111222,11111222,11111222' 
TCOON,ioos:station:TCOON:524:1,2012-06-08T20:00:00Z,29.8672,-93.9310,0.0,3.2,90.0,5.1,'11111222,11111222,11111222' 
TCOON,ioos:station:TCOON:524:1,2012-06-08T21:00:00Z,29.8672,-93.9310,0.0,3.1,90.0,,'1111122,1111122,1111122' 
TCOON,ioos:station:TCOON:524:1,2012-06-08T22:00:00Z,29.8672,-93.9310,0.0,2.6,100.0,,'1111122,1111122,1111122' 
TCOON,ioos:station:TCOON:524:1,2012-06-08T23:00:00Z,29.8672,-93.9310,0.0,1.0,90.0,,'1111122,1111122,1111122' 
TCOON,ioos:station:TCOON:524:1,2012-06-09T00:00:00Z,29.8672,-93.9310,0.0,6.2,110.0,,'1111122,1111122,1111122' 
TCOON,ioos:station:TCOON:524:1,2012-06-09T01:00:00Z,29.8672,-93.9310,0.0,8.2,80.0,,'1111122,1111122,1111122' 
TCOON,ioos:station:TCOON:524:1,2012-06-09T02:00:00Z,29.8672,-93.9310,0.0,3.6,350.0,,'1111122,1111122,1111122' 
TCOON,ioos:station:TCOON:524:1,2012-06-09T03:00:00Z,29.8672,-93.9310,0.0,4.6,360.0,,'1111122,1111122,1111122' 
TCOON,ioos:station:TCOON:524:1,2012-06-09T04:00:00Z,29.8672,-93.9310,0.0,2.1,20.0,,'1111122,1111122,1111122' 
TCOON,ioos:station:TCOON:524:1,2012-06-09T05:00:00Z,29.8672,-93.9310,0.0,2.1,20.0,,'1111122,1111122,1111122' 
TCOON,ioos:station:TCOON:524:1,2012-06-09T06:00:00Z,29.8672,-93.9310,0.0,0.3,96.0,0.7,'11111222,11111222,11111222' 
TCOON,ioos:station:TCOON:524:1,2012-06-09T07:00:00Z,29.8672,-93.9310,0.0,2.1,120.0,,'1111122,1111122,1111122' 
TCOON,ioos:station:TCOON:524:1,2012-06-09T08:00:00Z,29.8672,-93.9310,0.0,3.6,100.0,,'1111122,1111122,1111122' 
TCOON,ioos:station:TCOON:524:1,2012-06-09T09:00:00Z,29.8672,-93.9310,0.0,2.6,60.0,,'1111122,1111122,1111122' 
TCOON,ioos:station:TCOON:524:1,2012-06-09T10:00:00Z,29.8672,-93.9310,0.0,4.6,360.0,,'1111122,1111122,1111122' 
TCOON,ioos:station:TCOON:524:1,2012-06-09T11:00:00Z,29.8672,-93.9310,0.0,3.1,10.0,,'1111122,1111122,1111122' 
TCOON,ioos:station:TCOON:524:1,2012-06-09T12:00:00Z,29.8672,-93.9310,0.0,1.5,30.0,,'1111122,1111122,1111122' 
TCOON,ioos:station:TCOON:524:1,2012-06-09T13:00:00Z,29.8672,-93.9310,0.0,1.0,40.0,,'1111122,1111122,1111122' 
TCOON,ioos:station:TCOON:524:1,2012-06-09T14:00:00Z,29.8672,-93.9310,0.0,2.1,60.0,,'1111122,1111122,1111122' 
TCOON,ioos:station:TCOON:524:1,2012-06-09T15:00:00Z,29.8672,-93.9310,0.0,2.1,50.0,,'1111122,1111122,1111122' 
TCOON,ioos:station:TCOON:524:1,2012-06-09T16:00:00Z,29.8672,-93.9310,0.0,3.1,90.0,,'1111122,1111122,1111122' 